Location: Bacharowice
(49.9333°N, 19.5833°E)
Time: 08:30:55
(UTC+00:00)

Cosmos 2344 - Pass Details

Date: 25 September 2021
Orbit: 1235 x 3007 km, 63.3° (Epoch: 19 October)

Event Time Altitude Azimuth Distance (km) Brightness Sun altitude
Rises 21:26:09 0° 313° (NW) 4,381 7.2 -39.2°
Reaches altitude 10° 21:28:45 10° 317° (NW) 3,519 6.5 -39.4°
Maximum altitude 21:37:22 67° 40° (NE) 1,840 4.3 -39.8°
Enters shadow 21:37:45 66° 53° (NE) 1,861 4.2 -39.9°
